• In Russia
  • List of Countries
  • For 7 days
  • Water Temperature
  • Satellite Maps
  • Weather Map
  • Weather Widgets
  • user-avatar
    Login

    Hourly Weather Durres

    Today, 25 June, Sunday

    Time Temperature Precipitation Wind Pressure Humidity
    00:00 +25°C° 0 mm 1 mps 760 mmHg 62%
    01:00 +25°C° 0 mm 1 mps 760 mmHg 62%
    02:00 +25°C° 0 mm 1 mps 759 mmHg 62%
    03:00 +25°C° 0 mm 2 mps 759 mmHg 63%
    04:00 +24°C° 0 mm 2 mps 759 mmHg 63%
    05:00 +26°C° 0 mm 1 mps 759 mmHg 58%
    06:00 +29°C° 0 mm 1 mps 759 mmHg 54%
    07:00 +31°C° 0 mm 1 mps 759 mmHg 49%
    08:00 +33°C° 0 mm 1 mps 759 mmHg 43%
    09:00 +35°C° 0 mm 1 mps 759 mmHg 36%
    10:00 +37°C° 0 mm 1 mps 759 mmHg 30%
    11:00 +38°C° 0 mm 2 mps 759 mmHg 30%
    12:00 +38°C° 0 mm 2 mps 758 mmHg 29%
    13:00 +38°C° 0 mm 3 mps 758 mmHg 29%
    14:00 +38°C° 0 mm 3 mps 758 mmHg 31%
    15:00 +37°C° 0 mm 3 mps 758 mmHg 33%
    16:00 +36°C° 0 mm 2 mps 757 mmHg 36%
    17:00 +32°C° 0 mm 2 mps 757 mmHg 46%
    18:00 +30°C° 0 mm 2 mps 757 mmHg 57%
    19:00 +27°C° 0 mm 1 mps 757 mmHg 67%
    20:00 +26°C° 0 mm 2 mps 757 mmHg 68%
    21:00 +25°C° 0 mm 2 mps 758 mmHg 70%
    22:00 +24°C° 0 mm 3 mps 758 mmHg 71%
    23:00 +24°C° 0 mm 3 mps 758 mmHg 72%

    Tomorrow, 26 June, Monday

    Time Temperature Precipitation Wind Pressure Humidity
    00:00 +22°C° 0 mm 3 mps 758 mmHg 73%
    01:00 +22°C° 0 mm 3 mps 757 mmHg 75%
    02:00 +23°C° 0 mm 2 mps 757 mmHg 76%
    03:00 +23°C° 0 mm 2 mps 757 mmHg 77%
    04:00 +21°C° 0 mm 2 mps 757 mmHg 78%
    05:00 +25°C° 0 mm 2 mps 757 mmHg 67%
    06:00 +28°C° 0 mm 2 mps 757 mmHg 56%
    07:00 +31°C° 0 mm 2 mps 757 mmHg 45%
    08:00 +32°C° 0 mm 2 mps 757 mmHg 42%
    09:00 +34°C° 0 mm 2 mps 757 mmHg 38%
    10:00 +36°C° 0 mm 3 mps 757 mmHg 34%
    11:00 +36°C° 0 mm 3 mps 757 mmHg 34%
    12:00 +36°C° 0 mm 3 mps 757 mmHg 34%
    13:00 +37°C° 0 mm 3 mps 757 mmHg 34%
    14:00 +36°C° 0 mm 3 mps 756 mmHg 36%
    15:00 +35°C° 0 mm 3 mps 756 mmHg 38%
    16:00 +35°C° 0 mm 2 mps 756 mmHg 40%
    17:00 +31°C° 0 mm 2 mps 756 mmHg 50%
    18:00 +29°C° 0 mm 2 mps 757 mmHg 61%
    19:00 +26°C° 0 mm 1 mps 757 mmHg 71%
    20:00 +25°C° 0 mm 1 mps 757 mmHg 74%
    21:00 +24°C° 0 mm 1 mps 757 mmHg 78%
    22:00 +21°C° 0 mm 0 mps 758 mmHg 81%
    23:00 +21°C° 0 mm 0 mps 758 mmHg 81%

    Day after tomorrow, 27 June, Tuesday

    Time Temperature Precipitation Wind Pressure Humidity
    00:00 +22°C° 0 mm 1 mps 758 mmHg 82%
    01:00 +22°C° 0 mm 1 mps 758 mmHg 82%
    02:00 +22°C° 0 mm 1 mps 758 mmHg 82%
    03:00 +22°C° 0 mm 1 mps 757 mmHg 82%
    04:00 +22°C° 0 mm 1 mps 757 mmHg 81%
    05:00 +23°C° 0 mm 0 mps 757 mmHg 70%
    06:00 +25°C° 0 mm 0 mps 758 mmHg 59%
    07:00 +28°C° 0 mm 0 mps 758 mmHg 48%
    08:00 +32°C° 0 mm 1 mps 758 mmHg 44%
    09:00 +33°C° 0 mm 1 mps 758 mmHg 40%
    10:00 +34°C° 0 mm 1 mps 758 mmHg 36%
    11:00 +36°C° 0 mm 2 mps 757 mmHg 35%
    12:00 +36°C° 0 mm 2 mps 757 mmHg 33%
    13:00 +37°C° 0 mm 2 mps 757 mmHg 31%
    14:00 +36°C° 0 mm 2 mps 757 mmHg 33%
    15:00 +36°C° 0 mm 2 mps 757 mmHg 34%
    16:00 +35°C° 0 mm 2 mps 756 mmHg 35%
    17:00 +31°C° 0 mm 2 mps 757 mmHg 47%
    18:00 +29°C° 0 mm 2 mps 757 mmHg 58%
    19:00 +26°C° 0 mm 1 mps 757 mmHg 70%
    20:00 +25°C° 0 mm 2 mps 757 mmHg 68%
    21:00 +25°C° 0 mm 2 mps 757 mmHg 66%
    22:00 +24°C° 0 mm 3 mps 758 mmHg 65%
    23:00 +24°C° 0 mm 3 mps 757 mmHg 65%

    28 June, Wednesday

    Time Temperature Precipitation Wind Pressure Humidity
    00:00 +22°C° 0 mm 3 mps 757 mmHg 66%
    01:00 +22°C° 0 mm 3 mps 757 mmHg 66%
    02:00 +22°C° 0 mm 3 mps 757 mmHg 64%
    03:00 +22°C° 0 mm 3 mps 757 mmHg 61%
    04:00 +22°C° 0 mm 3 mps 757 mmHg 58%
    05:00 +26°C° 0 mm 4 mps 757 mmHg 51%
    06:00 +29°C° 0 mm 4 mps 757 mmHg 45%
    07:00 +32°C° 0 mm 4 mps 757 mmHg 39%
    08:00 +34°C° 0 mm 4 mps 757 mmHg 35%
    09:00 +36°C° 0 mm 4 mps 757 mmHg 32%
    10:00 +37°C° 0 mm 4 mps 757 mmHg 29%
    11:00 +39°C° 0 mm 5 mps 756 mmHg 28%
    12:00 +39°C° 0 mm 5 mps 756 mmHg 27%
    13:00 +40°C° 0 mm 6 mps 756 mmHg 26%
    14:00 +39°C° 0 mm 6 mps 756 mmHg 28%
    15:00 +38°C° 0 mm 6 mps 756 mmHg 30%
    16:00 +36°C° 0 mm 5 mps 756 mmHg 33%
    17:00 +34°C° 0 mm 5 mps 756 mmHg 42%
    18:00 +30°C° 0 mm 4 mps 756 mmHg 52%
    19:00 +27°C° 0 mm 4 mps 756 mmHg 61%
    20:00 +27°C° 0 mm 4 mps 757 mmHg 59%
    21:00 +26°C° 0 mm 4 mps 757 mmHg 57%
    22:00 +26°C° 0 mm 4 mps 757 mmHg 56%
    23:00 +26°C° 0 mm 4 mps 757 mmHg 55%

    29 June, Thursday

    Time Temperature Precipitation Wind Pressure Humidity
    00:00 +25°C° 0 mm 4 mps 757 mmHg 54%
    01:00 +25°C° 0 mm 4 mps 756 mmHg 53%
    02:00 +25°C° 0 mm 4 mps 756 mmHg 53%
    03:00 +25°C° 0 mm 4 mps 756 mmHg 52%
    04:00 +23°C° 0 mm 4 mps 756 mmHg 52%
    05:00 +27°C° 0 mm 4 mps 756 mmHg 47%
    06:00 +30°C° 0 mm 4 mps 757 mmHg 41%
    07:00 +34°C° 0 mm 4 mps 757 mmHg 36%
    08:00 +36°C° 0 mm 4 mps 757 mmHg 31%
    09:00 +39°C° 0 mm 5 mps 757 mmHg 27%
    10:00 +41°C° 0 mm 5 mps 757 mmHg 22%
    11:00 +41°C° 0 mm 6 mps 756 mmHg 22%
    12:00 +43°C° 0 mm 7 mps 756 mmHg 22%
    13:00 +43°C° 0 mm 8 mps 756 mmHg 22%
    14:00 +41°C° 0 mm 8 mps 756 mmHg 24%
    15:00 +41°C° 0 mm 8 mps 756 mmHg 25%
    16:00 +40°C° 0 mm 8 mps 755 mmHg 26%
    17:00 +37°C° 0 mm 8 mps 756 mmHg 35%
    18:00 +33°C° 0 mm 7 mps 756 mmHg 43%
    19:00 +29°C° 0 mm 7 mps 756 mmHg 52%
    20:00 +28°C° 0 mm 7 mps 756 mmHg 52%
    21:00 +27°C° 0 mm 6 mps 757 mmHg 53%
    22:00 +26°C° 0 mm 6 mps 757 mmHg 53%
    23:00 +26°C° 0 mm 5 mps 757 mmHg 54%

    30 June, Friday

    Time Temperature Precipitation Wind Pressure Humidity
    00:00 +26°C° 0 mm 5 mps 757 mmHg 55%
    01:00 +25°C° 0 mm 4 mps 757 mmHg 56%
    02:00 +25°C° 0 mm 4 mps 757 mmHg 54%
    03:00 +25°C° 0 mm 4 mps 757 mmHg 52%
    04:00 +25°C° 0 mm 4 mps 757 mmHg 50%
    05:00 +28°C° 0 mm 3 mps 757 mmHg 45%
    06:00 +30°C° 0 mm 3 mps 757 mmHg 41%
    07:00 +34°C° 0 mm 3 mps 758 mmHg 36%
    08:00 +36°C° 0 mm 4 mps 758 mmHg 32%
    09:00 +37°C° 0 mm 4 mps 757 mmHg 27%
    10:00 +40°C° 0 mm 5 mps 757 mmHg 22%
    11:00 +41°C° 0 mm 5 mps 757 mmHg 21%
    12:00 +41°C° 0 mm 6 mps 757 mmHg 20%
    13:00 +42°C° 0 mm 6 mps 756 mmHg 19%
    14:00 +42°C° 0 mm 6 mps 756 mmHg 20%
    15:00 +41°C° 0 mm 6 mps 756 mmHg 21%
    16:00 +41°C° 0 mm 6 mps 755 mmHg 22%
    17:00 +36°C° 0 mm 6 mps 755 mmHg 31%
    18:00 +33°C° 0 mm 6 mps 755 mmHg 40%
    19:00 +29°C° 0 mm 6 mps 755 mmHg 49%
    20:00 +28°C° 0 mm 6 mps 755 mmHg 52%
    21:00 +27°C° 0 mm 5 mps 756 mmHg 54%
    22:00 +26°C° 0 mm 5 mps 756 mmHg 57%
    23:00 +25°C° 0 mm 4 mps 756 mmHg 58%
    Show more